Date String (YYYY-MM-DD hh:mm:ss) UTC,Instrument flags,Ambient pressure (hPa),Sample flow (lpm),Bypass flow (lpm),Sample temperature (°C),Ambient temperature (°C),ASC tube jacket temperature (°C),LED temperature (°C),Box temperature (°C),Sample RH (%),Span deviation,Mass concentration (μg/m³),Mass concentration (μg/m³),Mass concentration (μg/m³)
DateTimeUTC,F1_M11,P_M11,Q1_M11,Q2_M11,T1_M11,T2_M11,T3_M11,T4_M11,T5_M11,U1_M11,ZSPAN_M11,X0_M11,X2_M11,X1_M11
2023-02-23 20:00:00,,0822.3,5.02,0.00,22.4,20.6,00.0,31.2,24.0,03.8,0001.7,0008.41,0004.67,0004.36
2023-02-23 20:01:00,,0822.3,5.00,0.00,22.3,20.5,00.0,31.1,23.9,03.7,0002.1,0008.44,0004.67,0004.33
2023-02-23 20:02:00,,0822.4,5.00,0.00,22.3,20.5,00.0,31.1,23.9,03.7,0002.4,0008.54,0004.70,0004.32
2023-02-23 20:03:00,,0822.4,5.03,0.00,22.3,21.5,00.0,31.1,24.1,03.7,0002.2,0007.67,0004.67,0004.29
2023-02-23 20:04:00,,0822.4,4.98,0.00,22.4,22.6,00.0,31.1,24.4,03.7,0002.3,0007.49,0004.60,0004.25
2023-02-23 20:05:00,,0822.4,5.00,0.00,22.5,22.5,00.0,31.2,24.4,03.7,0002.2,0007.39,0004.53,0004.21
2023-02-23 20:06:00,,0822.3,5.01,0.00,22.5,22.1,00.0,31.2,24.3,03.7,0002.0,0007.28,0004.48,0004.18
2023-02-23 20:07:00,,0822.4,4.99,0.00,22.5,21.7,00.0,31.2,24.3,03.7,0001.3,0007.17,0004.43,0004.13
2023-02-23 20:08:00,,0822.4,5.00,0.00,22.5,21.4,00.0,31.2,24.2,03.7,0000.8,0007.51,0004.39,0004.10
2023-02-23 20:09:00,,0822.3,4.98,0.00,22.4,21.0,00.0,31.2,24.0,03.6,0000.7,0007.44,0004.35,0004.07
2023-02-23 20:10:00,,0822.3,5.00,0.00,22.4,20.7,00.0,31.1,23.9,03.6,0000.6,0007.96,0004.32,0004.04
2023-02-23 20:11:00,,0822.3,4.98,0.00,22.4,20.5,00.0,31.1,23.9,03.7,0000.4,0008.08,0004.30,0004.01
2023-02-23 20:12:00,,0822.3,5.00,0.00,22.3,20.5,00.0,31.1,23.9,03.7,0000.0,0008.69,0004.27,0003.97
2023-02-23 20:13:00,,0822.3,5.00,0.00,22.3,20.5,00.0,31.1,23.9,03.7,0000.0,0008.57,0004.22,0003.95
2023-02-23 20:14:00,,0822.3,4.99,0.00,22.3,20.5,00.0,31.1,23.9,03.7,0000.0,0008.57,0004.21,0003.93
2023-02-23 20:15:00,,0822.3,4.99,0.00,22.3,20.5,00.0,31.1,23.9,03.7,0000.0,0008.52,0004.18,0003.91
2023-02-23 20:16:00,,0822.3,4.98,0.00,22.3,20.4,00.0,31.1,23.8,03.8,0000.0,0008.44,0004.16,0003.88
2023-02-23 20:17:00,,0822.3,5.01,0.00,22.2,20.3,00.0,31.1,23.8,03.7,0000.0,0008.44,0004.15,0003.85
2023-02-23 20:18:00,,0822.3,5.01,0.00,22.2,20.9,00.0,31.0,23.9,03.7,0000.0,0008.42,0004.11,0003.82
2023-02-23 20:19:00,,0822.3,5.01,0.00,22.3,22.2,00.0,31.0,24.2,03.7,0000.0,0008.12,0004.07,0003.80
2023-02-23 20:20:00,,0822.3,4.97,0.00,22.5,23.1,00.0,31.1,24.5,03.7,0000.0,0008.00,0004.05,0003.78
2023-02-23 20:21:00,,0822.3,4.97,0.00,22.5,22.8,00.0,31.1,24.5,03.7,0000.0,0007.57,0004.02,0003.76
2023-02-23 20:22:00,,0822.3,4.99,0.00,22.5,22.3,00.0,31.1,24.4,03.7,0000.0,0007.41,0003.99,0003.73
2023-02-23 20:23:00,,0822.2,5.01,0.00,22.5,21.8,00.0,31.1,24.2,03.7,0000.0,0006.84,0003.95,0003.71
2023-02-23 20:24:00,,0822.2,5.01,0.00,22.5,21.4,00.0,31.1,24.2,03.7,0000.0,0006.91,0003.92,0003.68
2023-02-23 20:25:00,,0822.2,5.00,0.00,22.5,21.2,00.0,31.2,24.1,03.7,0000.0,0006.79,0003.88,0003.66
2023-02-23 20:26:00,,0822.2,5.00,0.00,22.5,21.1,00.0,31.2,24.1,03.7,0000.0,0006.75,0003.86,0003.64
2023-02-23 20:27:00,,0822.2,5.00,0.00,22.4,21.0,00.0,31.2,24.1,03.7,0000.0,0006.75,0003.85,0003.63
2023-02-23 20:28:00,,0822.2,5.00,0.00,22.4,20.8,00.0,31.2,24.0,03.7,0000.0,0006.63,0003.81,0003.62
2023-02-23 20:29:00,,0822.3,5.01,0.00,22.4,20.6,00.0,31.1,23.9,03.7,0000.0,0006.62,0003.82,0003.62
2023-02-23 20:30:00,,0822.3,4.99,0.00,22.3,20.5,00.0,31.1,23.9,03.7,0000.0,0006.59,0003.81,0003.61
2023-02-23 20:31:00,,0822.3,5.00,0.00,22.3,20.5,00.0,31.1,23.9,03.8,0000.0,0006.69,0003.83,0003.60
2023-02-23 20:32:00,,0822.3,4.98,0.00,22.3,20.4,00.0,31.1,23.9,03.8,0000.0,0006.71,0003.83,0003.59
2023-02-23 20:33:00,,0822.2,4.98,0.00,22.2,20.3,00.0,31.1,23.8,03.8,0000.0,0006.67,0003.84,0003.59
2023-02-23 20:34:00,,0822.2,5.01,0.00,22.2,20.5,00.0,31.1,23.8,03.8,0000.0,0006.07,0003.83,0003.59
2023-02-23 20:35:00,,0822.2,5.01,0.00,22.3,21.6,00.0,31.1,24.1,03.8,0000.0,0005.69,0003.85,0003.59
2023-02-23 20:36:00,,0822.2,5.01,0.00,22.4,22.7,00.0,31.1,24.4,03.7,0000.0,0006.17,0003.85,0003.58
2023-02-23 20:37:00,,0822.2,4.96,0.00,22.5,23.2,00.0,31.1,24.5,03.7,0000.0,0007.15,0003.87,0003.58
2023-02-23 20:38:00,,0822.3,5.01,0.00,22.6,22.6,00.0,31.1,24.4,03.7,0000.0,0007.16,0003.88,0003.58
2023-02-23 20:39:00,,0822.4,5.01,0.00,22.6,22.2,00.0,31.2,24.3,03.7,0000.0,0007.25,0003.89,0003.58
2023-02-23 20:40:00,,0822.4,5.00,0.00,22.6,21.8,00.0,31.2,24.3,03.7,0000.0,0007.36,0003.90,0003.59
2023-02-23 20:41:00,,0822.4,4.98,0.00,22.5,21.5,00.0,31.2,24.2,03.7,0000.0,0007.43,0003.91,0003.60
2023-02-23 20:42:00,,0822.4,5.00,0.00,22.5,21.3,00.0,31.2,24.2,03.7,0000.0,0007.41,0003.90,0003.61
2023-02-23 20:43:00,,0822.3,5.00,0.00,22.5,21.1,00.0,31.2,24.1,03.7,0000.0,0007.46,0003.92,0003.63
2023-02-23 20:44:00,,0822.4,4.99,0.00,22.4,20.9,00.0,31.2,24.0,03.7,0000.0,0007.48,0003.92,0003.63
2023-02-23 20:45:00,,0822.4,5.00,0.00,22.4,20.7,00.0,31.2,23.9,03.7,0000.0,0007.52,0003.94,0003.64
2023-02-23 20:46:00,,0822.4,5.00,0.00,22.4,20.6,00.0,31.2,23.9,03.7,0000.0,0007.52,0003.94,0003.66
2023-02-23 20:47:00,,0822.4,4.99,0.00,22.3,20.5,00.0,31.2,23.9,03.7,0000.0,0007.83,0003.98,0003.68
2023-02-23 20:48:00,,0822.4,4.99,0.00,22.3,21.2,00.0,31.2,24.0,03.8,0000.0,0007.44,0003.97,0003.70
2023-02-23 20:49:00,,0822.4,4.97,0.00,22.5,22.5,00.0,31.1,24.3,03.8,0000.0,0007.46,0003.99,0003.71
2023-02-23 20:50:00,,0822.4,4.97,0.00,22.6,23.3,00.0,31.2,24.6,03.7,0000.0,0007.42,0003.99,0003.73
2023-02-23 20:51:00,,0822.4,4.99,0.00,22.7,22.9,00.0,31.2,24.5,03.7,0000.0,0007.56,0004.01,0003.75
2023-02-23 20:52:00,,0822.4,5.01,0.00,22.6,22.3,00.0,31.2,24.4,03.7,0000.0,0007.66,0004.02,0003.76
2023-02-23 20:53:00,,0822.3,4.98,0.00,22.6,21.7,00.0,31.3,24.2,03.7,0000.0,0007.66,0004.03,0003.77
2023-02-23 20:54:00,,0822.4,5.03,0.00,22.6,21.4,00.0,31.3,24.1,03.7,0000.0,0008.03,0004.05,0003.77
2023-02-23 20:55:00,,0822.3,4.99,0.00,22.5,21.0,00.0,31.2,24.1,03.7,0000.0,0008.35,0004.06,0003.78
2023-02-23 20:56:00,,0822.2,4.99,0.00,22.5,20.9,00.0,31.2,24.0,03.8,0000.0,0008.40,0004.07,0003.78
2023-02-23 20:57:00,,0822.2,5.00,0.00,22.4,20.8,00.0,31.2,24.0,03.8,0000.0,0008.73,0004.09,0003.80
2023-02-23 20:58:00,,0822.2,5.00,0.00,22.4,20.7,00.0,31.2,24.0,03.8,0000.0,0008.61,0004.11,0003.81
2023-02-23 20:59:00,,0822.4,4.96,0.00,22.4,20.7,00.0,31.2,24.0,03.8,0000.0,0008.26,0004.15,0003.83
